| time (UTC) | temp F | wind direction | speed MPH | gust MPH | rain 1hr in | rain 24hr in | rain mn in | humidity % | barometer mb |
| 20260902220517 | 63 | 135 | 4.0 | 15.0 | 0.00 | 0.00 | 0.00 | 65 | 1001.2 |
| 20260902215516 | 64 | 90 | 6.0 | 20.0 | 0.00 | 0.00 | 0.00 | 63 | 1001.0 |
| 20260902214516 | 65 | 158 | 5.0 | 22.0 | 0.00 | 0.00 | 0.00 | 61 | 1001.0 |
| 20260902213516 | 65 | 180 | 4.0 | 12.0 | 0.00 | 0.00 | 0.00 | 60 | 1001.1 |
| 20260902212516 | 66 | 180 | 6.0 | 20.0 | 0.00 | 0.00 | 0.00 | 58 | 1001.0 |
| 20260902211516 | 67 | 113 | 3.0 | 13.0 | 0.00 | 0.00 | 0.00 | 57 | 1001.0 |
| 20260902210516 | 67 | 158 | 3.0 | 9.0 | 0.00 | 0.00 | 0.00 | 58 | 1001.1 |
| 20260902205516 | 68 | 158 | 2.0 | 9.0 | 0.00 | 0.00 | 0.00 | 59 | 1001.2 |
| 20260902204516 | 68 | 158 | 4.0 | 13.0 | 0.00 | 0.00 | 0.00 | 62 | 1001.2 |
| 20260902203536 | 68 | 135 | 3.0 | 10.0 | 0.00 | 0.00 | 0.00 | 61 | 1001.2 |
| 20260902202516 | 67 | 45 | 4.0 | 11.0 | 0.00 | 0.00 | 0.00 | 62 | 1001.6 |
| 20260902201516 | 67 | 203 | 3.0 | 10.0 | 0.00 | 0.00 | 0.00 | 63 | 1001.6 |
| 20260902200536 | 66 | 158 | 4.0 | 14.0 | 0.00 | 0.00 | 0.00 | 64 | 1001.6 |
| 20260902195516 | 66 | 180 | 4.0 | 17.0 | 0.00 | 0.00 | 0.00 | 65 | 1001.2 |
| 20260902194516 | 66 | 158 | 4.0 | 17.0 | 0.00 | 0.00 | 0.00 | 65 | 1001.2 |
| 20260902193516 | 66 | 180 | 4.0 | 15.0 | 0.00 | 0.00 | 0.00 | 65 | 1001.3 |
| 20260902192516 | 66 | 158 | 4.0 | 17.0 | 0.00 | 0.00 | 0.00 | 66 | 1001.5 |
| 20260902191516 | 66 | 158 | 5.0 | 15.0 | 0.00 | 0.00 | 0.00 | 65 | 1001.5 |
| 20260902190516 | 66 | 180 | 3.0 | 13.0 | 0.00 | 0.00 | 0.00 | 66 | 1001.6 |
| 20260902185516 | 66 | 158 | 4.0 | 14.0 | 0.00 | 0.00 | 0.00 | 66 | 1001.9 |
| 20260902184516 | 65 | 180 | 2.0 | 12.0 | 0.00 | 0.00 | 0.00 | 68 | 1001.9 |
| 20260902183516 | 65 | 158 | 3.0 | 11.0 | 0.00 | 0.00 | 0.00 | 68 | 1002.3 |
| 20260902182516 | 64 | 158 | 3.0 | 14.0 | 0.00 | 0.00 | 0.00 | 69 | 1002.4 |
| 20260902181515 | 64 | 180 | 3.0 | 12.0 | 0.00 | 0.00 | 0.00 | 68 | 1002.4 |
| 20260902180515 | 64 | 158 | 4.0 | 12.0 | 0.00 | 0.00 | 0.00 | 69 | 1002.6 |
| 20260902175516 | 64 | 180 | 4.0 | 13.0 | 0.00 | 0.00 | 0.00 | 69 | 1002.6 |
| 20260902174536 | 64 | 158 | 4.0 | 17.0 | 0.00 | 0.00 | 0.00 | 68 | 1002.6 |
| 20260902173556 | 63 | 180 | 3.0 | 20.0 | 0.00 | 0.00 | 0.00 | 69 | 1002.8 |
| 20260902172516 | 63 | 180 | 5.0 | 18.0 | 0.00 | 0.00 | 0.00 | 71 | 1002.4 |
| 20260902171515 | 63 | 135 | 3.0 | 13.0 | 0.00 | 0.00 | 0.00 | 71 | 1002.4 |
| 20260902170515 | 62 | 158 | 4.0 | 14.0 | 0.00 | 0.00 | 0.00 | 73 | 1002.7 |
| 20260902165516 | 62 | 158 | 3.0 | 7.0 | 0.00 | 0.00 | 0.00 | 73 | 1002.7 |
| 20260902164516 | 62 | 158 | 5.0 | 12.0 | 0.00 | 0.00 | 0.00 | 76 | 1002.7 |
| 20260902163515 | 62 | 158 | 3.0 | 10.0 | 0.00 | 0.00 | 0.00 | 76 | 1002.8 |
| 20260902162516 | 62 | 203 | 2.0 | 10.0 | 0.00 | 0.00 | 0.00 | 76 | 1002.9 |
| 20260902161519 | 62 | 135 | 5.0 | 14.0 | 0.00 | 0.00 | 0.00 | 77 | 1002.9 |
| 20260902160515 | 62 | 158 | 4.0 | 16.0 | 0.00 | 0.00 | 0.00 | 77 | 1003.1 |
| 20260902155516 | 61 | 158 | 4.0 | 12.0 | 0.00 | 0.00 | 0.00 | 78 | 1003.2 |
| 20260902154516 | 61 | 180 | 3.0 | 11.0 | 0.00 | 0.00 | 0.00 | 79 | 1003.2 |
| 20260902153515 | 61 | 180 | 5.0 | 18.0 | 0.00 | 0.00 | 0.00 | 78 | 1003.2 |
| 20260902152515 | 60 | 180 | 3.0 | 17.0 | 0.00 | 0.00 | 0.00 | 79 | 1003.5 |
| 20260902151515 | 60 | 203 | 4.0 | 11.0 | 0.00 | 0.00 | 0.00 | 81 | 1003.5 |
| 20260902150535 | 59 | 158 | 4.0 | 15.0 | 0.00 | 0.00 | 0.00 | 83 | 1003.8 |
| 20260902145555 | 58 | 180 | 0.0 | 4.0 | 0.00 | 0.00 | 0.00 | 85 | 1003.9 |
| 20260902144516 | 57 | 203 | 3.0 | 7.0 | 0.00 | 0.00 | 0.00 | 87 | 1003.9 |
| 20260902143517 | 56 | 225 | 0.0 | 1.0 | 0.00 | 0.00 | 0.00 | 87 | 1004.1 |
| 20260902142517 | 57 | 225 | 0.0 | 0.0 | 0.00 | 0.00 | 0.00 | 87 | 1004.2 |
| 20260902141517 | 57 | 225 | 0.0 | 0.0 | 0.00 | 0.00 | 0.00 | 86 | 1004.2 |
| 20260902140517 | 57 | 225 | 0.0 | 0.0 | 0.00 | 0.00 | 0.00 | 86 | 1004.1 |
| 20260902135517 | 57 | 225 | 0.0 | 2.0 | 0.00 | 0.00 | 0.00 | 85 | 1004.0 |
| 20260902134517 | 57 | 180 | 2.0 | 13.0 | 0.00 | 0.00 | 0.00 | 87 | 1004.0 |
| 20260902133517 | 57 | 180 | 1.0 | 4.0 | 0.00 | 0.00 | 0.00 | 88 | 1004.0 |
| 20260902132515 | 56 | 158 | 1.0 | 6.0 | 0.00 | 0.00 | 0.00 | 89 | 1004.0 |
| 20260902131517 | 55 | 203 | 2.0 | 8.0 | 0.00 | 0.00 | 0.00 | 92 | 1004.0 |
| 20260902130517 | 54 | 248 | 2.0 | 6.0 | 0.00 | 0.00 | 0.00 | 95 | 1004.0 |
| 20260902125517 | 54 | 248 | 0.0 | 3.0 | 0.00 | 0.00 | 0.00 | 95 | 1004.2 |
| 20260902124517 | 54 | 254 | 0.0 | 0.0 | 0.00 | 0.00 | 0.00 | 96 | 1004.2 |
| 20260902123517 | 54 | 248 | 0.0 | 2.0 | 0.00 | 0.00 | 0.00 | 96 | 1004.3 |
| 20260902122517 | 53 | 248 | 0.0 | 1.0 | 0.00 | 0.00 | 0.00 | 96 | 1004.4 |
| 20260902121537 | 53 | 248 | 0.0 | 3.0 | 0.00 | 0.00 | 0.00 | 96 | 1004.4 |
| 20260902120537 | 53 | 248 | 1.0 | 3.0 | 0.00 | 0.00 | 0.00 | 96 | 1004.4 |
| 20260902115517 | 52 | 248 | 1.0 | 5.0 | 0.00 | 0.00 | 0.00 | 96 | 1004.6 |
| 20260902114517 | 52 | 254 | 0.0 | 0.0 | 0.00 | 0.00 | 0.00 | 96 | 1004.6 |
| 20260902113517 | 52 | 248 | 0.0 | 3.0 | 0.00 | 0.00 | 0.00 | 96 | 1004.8 |
| 20260902112517 | 52 | 254 | 0.0 | 0.0 | 0.00 | 0.00 | 0.00 | 95 | 1005.3 |
| 20260902111517 | 52 | 248 | 1.0 | 4.0 | 0.00 | 0.00 | 0.00 | 95 | 1005.3 |
| 20260902110517 | 52 | 254 | 0.0 | 0.0 | 0.00 | 0.00 | 0.00 | 95 | 1005.5 |
| 20260902105516 | 52 | 254 | 0.0 | 0.0 | 0.00 | 0.00 | 0.00 | 95 | 1005.6 |
| 20260902104517 | 53 | 254 | 0.0 | 0.0 | 0.00 | 0.00 | 0.00 | 95 | 1005.6 |
| 20260902103536 | 53 | 254 | 0.0 | 0.0 | 0.00 | 0.00 | 0.00 | 95 | 1005.8 |
| 20260902102516 | 53 | 254 | 0.0 | 0.0 | 0.00 | 0.00 | 0.00 | 94 | 1005.9 |
| 20260902101516 | 53 | 254 | 0.0 | 0.0 | 0.00 | 0.00 | 0.00 | 94 | 1005.9 |
| 20260902100516 | 53 | 254 | 0.0 | 0.0 | 0.00 | 0.00 | 0.00 | 94 | 1006.0 |
| 20260902095517 | 53 | 254 | 0.0 | 0.0 | 0.00 | 0.00 | 0.00 | 94 | 1005.9 |
| 20260902094517 | 53 | 254 | 0.0 | 0.0 | 0.00 | 0.00 | 0.00 | 94 | 1005.9 |
| 20260902093517 | 53 | 254 | 0.0 | 0.0 | 0.00 | 0.00 | 0.00 | 94 | 1005.9 |
| 20260902092517 | 53 | 254 | 0.0 | 0.0 | 0.00 | 0.00 | 0.00 | 93 | 1006.3 |
| 20260902091517 | 53 | 254 | 0.0 | 0.0 | 0.00 | 0.00 | 0.00 | 93 | 1006.3 |
| 20260902090517 | 53 | 254 | 0.0 | 0.0 | 0.00 | 0.00 | 0.00 | 92 | 1006.5 |
| 20260902085537 | 53 | 254 | 0.0 | 0.0 | 0.00 | 0.00 | 0.00 | 92 | 1006.6 |
| 20260902084517 | 53 | 254 | 0.0 | 0.0 | 0.00 | 0.00 | 0.00 | 92 | 1006.6 |
| 20260902083516 | 53 | 254 | 0.0 | 0.0 | 0.00 | 0.00 | 0.00 | 92 | 1006.8 |
| 20260902082516 | 54 | 254 | 0.0 | 0.0 | 0.00 | 0.00 | 0.00 | 91 | 1007.0 |
| 20260902081536 | 54 | 254 | 0.0 | 0.0 | 0.00 | 0.00 | 0.00 | 91 | 1007.0 |
| 20260902080516 | 54 | 254 | 0.0 | 0.0 | 0.00 | 0.00 | 0.00 | 91 | 1007.1 |
| 20260902075516 | 55 | 254 | 0.0 | 0.0 | 0.00 | 0.00 | 0.00 | 90 | 1007.2 |
| 20260902074556 | 55 | 254 | 0.0 | 0.0 | 0.00 | 0.00 | 0.00 | 90 | 1007.2 |
| 20260902073516 | 55 | 254 | 0.0 | 0.0 | 0.00 | 0.00 | 0.00 | 89 | 1007.1 |
| 20260902072516 | 56 | 254 | 0.0 | 0.0 | 0.00 | 0.00 | 0.00 | 89 | 1007.3 |
| 20260902071516 | 56 | 254 | 0.0 | 0.0 | 0.00 | 0.00 | 0.00 | 89 | 1007.3 |
| 20260902070516 | 57 | 254 | 0.0 | 0.0 | 0.00 | 0.00 | 0.00 | 88 | 1007.4 |
| 20260902065536 | 57 | 254 | 0.0 | 0.0 | 0.00 | 0.00 | 0.00 | 88 | 1007.5 |
| 20260902064516 | 58 | 254 | 0.0 | 0.0 | 0.00 | 0.00 | 0.00 | 88 | 1007.5 |
| 20260902063516 | 58 | 254 | 0.0 | 0.0 | 0.00 | 0.00 | 0.00 | 88 | 1007.5 |
| 20260902062516 | 58 | 254 | 0.0 | 0.0 | 0.00 | 0.00 | 0.00 | 88 | 1007.6 |
| 20260902061516 | 58 | 254 | 0.0 | 0.0 | 0.00 | 0.00 | 0.00 | 88 | 1007.6 |
| 20260902060516 | 58 | 254 | 0.0 | 0.0 | 0.00 | 0.00 | 0.00 | 87 | 1007.6 |
| 20260902055516 | 58 | 254 | 0.0 | 0.0 | 0.00 | 0.00 | 0.00 | 87 | 1007.9 |
| 20260902054516 | 59 | 254 | 0.0 | 0.0 | 0.00 | 0.00 | 0.00 | 87 | 1007.9 |
| 20260902053516 | 59 | 254 | 0.0 | 0.0 | 0.00 | 0.00 | 0.00 | 87 | 1008.0 |
| 20260902052516 | 59 | 254 | 0.0 | 0.0 | 0.00 | 0.00 | 0.00 | 87 | 1008.1 |
| 20260902051516 | 59 | 254 | 0.0 | 0.0 | 0.00 | 0.00 | 0.00 | 87 | 1008.1 |
| 20260902050536 | 60 | 254 | 0.0 | 0.0 | 0.00 | 0.00 | 0.00 | 87 | 1008.1 |
| 20260902045516 | 60 | 254 | 0.0 | 0.0 | 0.00 | 0.00 | 0.00 | 87 | 1008.1 |
| 20260902044517 | 60 | 254 | 0.0 | 0.0 | 0.00 | 0.00 | 0.00 | 85 | 1008.1 |
| 20260902043556 | 60 | 254 | 0.0 | 0.0 | 0.00 | 0.00 | 0.00 | 85 | 1008.2 |
| 20260902042515 | 60 | 254 | 0.0 | 0.0 | 0.00 | 0.00 | 0.00 | 85 | 1008.2 |
| 20260902041535 | 60 | 254 | 0.0 | 0.0 | 0.00 | 0.00 | 0.00 | 85 | 1008.2 |
| 20260902040516 | 60 | 254 | 0.0 | 0.0 | 0.00 | 0.00 | 0.00 | 85 | 1008.2 |
| 20260902035536 | 60 | 254 | 0.0 | 0.0 | 0.00 | 0.00 | 0.00 | 85 | 1008.1 |
| 20260902034535 | 60 | 254 | 0.0 | 0.0 | 0.00 | 0.00 | 0.00 | 84 | 1008.1 |
| 20260902033516 | 61 | 254 | 0.0 | 0.0 | 0.00 | 0.00 | 0.00 | 84 | 1008.1 |
| 20260902032536 | 61 | 254 | 0.0 | 0.0 | 0.00 | 0.00 | 0.00 | 84 | 1008.1 |
| 20260902031535 | 61 | 254 | 0.0 | 0.0 | 0.00 | 0.00 | 0.00 | 83 | 1008.1 |
| 20260902030535 | 61 | 254 | 0.0 | 0.0 | 0.00 | 0.00 | 0.00 | 83 | 1008.2 |
| 20260902025516 | 61 | 254 | 0.0 | 0.0 | 0.00 | 0.00 | 0.00 | 82 | 1008.2 |
| 20260902024556 | 61 | 254 | 0.0 | 0.0 | 0.00 | 0.00 | 0.00 | 82 | 1008.2 |
| 20260902023515 | 61 | 254 | 0.0 | 0.0 | 0.00 | 0.00 | 0.00 | 82 | 1008.2 |
| 20260902022515 | 61 | 254 | 0.0 | 0.0 | 0.00 | 0.00 | 0.00 | 82 | 1008.3 |
| 20260902021515 | 61 | 254 | 0.0 | 0.0 | 0.00 | 0.00 | 0.00 | 82 | 1008.3 |
| 20260902020516 | 62 | 254 | 0.0 | 0.0 | 0.00 | 0.00 | 0.00 | 82 | 1008.3 |
| 20260902015515 | 62 | 254 | 0.0 | 0.0 | 0.00 | 0.00 | 0.00 | 80 | 1008.5 |
| 20260902014521 | 62 | 254 | 0.0 | 0.0 | 0.00 | 0.00 | 0.00 | 80 | 1008.5 |
| 20260902013515 | 62 | 254 | 0.0 | 0.0 | 0.00 | 0.00 | 0.00 | 80 | 1008.5 |
| 20260902012515 | 62 | 254 | 0.0 | 0.0 | 0.00 | 0.00 | 0.00 | 80 | 1008.5 |
| 20260902011515 | 62 | 254 | 0.0 | 0.0 | 0.00 | 0.00 | 0.00 | 80 | 1008.5 |
| 20260902010517 | 62 | 254 | 0.0 | 0.0 | 0.00 | 0.00 | 0.00 | 79 | 1008.4 |
| 20260902005517 | 62 | 254 | 0.0 | 0.0 | 0.00 | 0.00 | 0.00 | 80 | 1008.5 |
| 20260902004537 | 62 | 254 | 0.0 | 0.0 | 0.00 | 0.00 | 0.00 | 79 | 1008.5 |
| 20260902003518 | 62 | 254 | 0.0 | 0.0 | 0.00 | 0.00 | 0.00 | 78 | 1008.4 |
| 20260902002517 | 62 | 254 | 0.0 | 0.0 | 0.00 | 0.00 | 0.00 | 79 | 1008.5 |
| 20260902001537 | 63 | 254 | 0.0 | 0.0 | 0.00 | 0.00 | 0.00 | 77 | 1008.5 |
| 20260902000517 | 63 | 254 | 0.0 | 0.0 | 0.00 | 0.00 | 0.00 | 77 | 1008.5 |
| 20260901235517 | 62 | 254 | 0.0 | 0.0 | 0.00 | 0.00 | 0.00 | 77 | 1008.6 |
| 20260901234517 | 62 | 254 | 0.0 | 0.0 | 0.00 | 0.00 | 0.00 | 78 | 1008.6 |
| 20260901233517 | 62 | 254 | 0.0 | 0.0 | 0.00 | 0.00 | 0.00 | 77 | 1008.6 |
| 20260901232517 | 62 | 248 | 0.0 | 2.0 | 0.00 | 0.00 | 0.00 | 77 | 1008.5 |
| 20260901231517 | 62 | 254 | 0.0 | 0.0 | 0.00 | 0.00 | 0.00 | 78 | 1008.5 |
| 20260901230517 | 62 | 254 | 0.0 | 0.0 | 0.00 | 0.00 | 0.00 | 80 | 1008.6 |
| 20260901225517 | 61 | 248 | 0.0 | 1.0 | 0.00 | 0.00 | 0.00 | 81 | 1008.5 |
| 20260901224517 | 61 | 254 | 0.0 | 0.0 | 0.00 | 0.00 | 0.00 | 82 | 1008.5 |
| 20260901223537 | 61 | 248 | 1.0 | 4.0 | 0.00 | 0.00 | 0.00 | 83 | 1008.6 |
| 20260901222517 | 61 | 248 | 0.0 | 1.0 | 0.00 | 0.00 | 0.00 | 82 | 1008.8 |
| 20260901221537 | 60 | 248 | 0.0 | 1.0 | 0.00 | 0.00 | 0.00 | 82 | 1008.8 |